Weather History for Cortez, CO

Change the Weather History Date:

Monday, July 1, 2013

  Actual Average Record
Temperature  
Mean Temperature 76 °F 69 °F  
Max Temperature 97 °F 89 °F 100 °F (2012)
Min Temperature 55 °F 49 °F 42 °F (2007)
Degree Days  
Heating Degree Days 0 0  
Month to date heating degree days 0 0  
Since 1 June heating degree days 12 75  
Since 1 July heating degree days 0 0  
Cooling Degree Days 11 4  
Month to date cooling degree days 11 4  
Year to date cooling degree days 138 67  
Since 1 June cooling degree days 138 62  
Growing Degree Days 28 (Base 50)    
Moisture  
Dew Point 40 °F    
Average Humidity 34    
Maximum Humidity 57    
Minimum Humidity 11    
Precipitation  
Precipitation 0.00 in 0.01 in 0.02 in (2010)
Month to date precipitation 0.00 0.01  
Year to date precipitation 3.33 5.63  
Sea Level Pressure  
Sea Level Pressure 29.93 in    
Wind  
Wind Speed 7 mph (NE)    
Max Wind Speed 23 mph    
Max Gust Speed 47 mph    
Visibility 10 miles    
Events      
T = Trace of Precipitation, MM = Missing Value Source: NWS Daily Summary

Daily Weather History Graph

Daily Weather History Graph

Search for Another Location

Airport:

Trip Planner

Search our weather history database for the weather conditions in past years. The results will help you decide how hot, cold, wet, or windy it might be!

Date:

Astronomy

Jul. 01, 2013 Rise Set
Actual Time 5:57 AM MDT 8:38 PM MDT
Civil Twilight 5:26 AM MDT 9:09 PM MDT
Nautical Twilight 4:48 AM MDT 9:48 PM MDT
Astronomical Twilight 4:05 AM MDT 10:31 PM MDT
Moon 1:24 AM MDT (7/1) 3:01 PM MDT (7/1)
Length of Visible Light 15h 42m
Length of Day
14h 41m
Waning Crescent, 35% of the Moon is Illuminated
Jul 1
Waning Crescent
Jul 8
New
Jul 15
First Quarter
Jul 22
Full
Jul 29
Last Quarter

Hourly Weather History & Observations

Time (MDT) Temp. Dew Point Humidity Pressure Visibility Wind Dir Wind Speed Gust Speed Precip Events Conditions
12:53 AM 73.0 °F 43.0 °F 34% 29.92 in 10.0 mi SSE 18.4 mph - N/A   Clear
1:53 AM 71.1 °F 43.0 °F 36% 29.94 in 10.0 mi SSE 12.7 mph 19.6 mph N/A   Clear
2:53 AM 73.0 °F 42.1 °F 33% 29.95 in 10.0 mi Calm Calm - N/A   Clear
3:53 AM 66.9 °F 44.1 °F 44% 29.99 in 10.0 mi ENE 3.5 mph - N/A   Clear
4:53 AM 64.0 °F 43.0 °F 46% 30.00 in 10.0 mi NNW 6.9 mph - N/A   Clear
5:53 AM 59.0 °F 44.1 °F 58% 30.03 in 10.0 mi Calm Calm - N/A   Clear
6:53 AM 62.1 °F 45.0 °F 53% 30.03 in 10.0 mi ENE 6.9 mph - N/A   Clear
7:53 AM 66.9 °F 45.0 °F 45% 30.03 in 10.0 mi Calm Calm - N/A   Clear
8:53 AM 73.0 °F 45.0 °F 37% 30.04 in 10.0 mi Calm Calm - N/A   Clear
9:53 AM 77.0 °F 46.0 °F 33% 30.01 in 10.0 mi Variable 4.6 mph - N/A   Clear
10:53 AM 81.0 °F 45.0 °F 28% 29.99 in 10.0 mi SW 4.6 mph - N/A   Clear
11:53 AM 84.0 °F 43.0 °F 24% 29.96 in 10.0 mi Variable 3.5 mph - N/A   Clear
12:53 PM 88.0 °F 43.0 °F 21% 29.93 in 10.0 mi SSW 8.1 mph - N/A   Clear
1:53 PM 90.0 °F 42.1 °F 19% 29.89 in 10.0 mi SW 8.1 mph - N/A   Partly Cloudy
2:53 PM 91.0 °F 42.1 °F 18% 29.86 in 10.0 mi South 15.0 mph 19.6 mph N/A   Partly Cloudy
3:53 PM 91.9 °F 37.9 °F 15% 29.83 in 10.0 mi NNE 13.8 mph 47.2 mph N/A   Clear
4:53 PM 96.1 °F 33.1 °F 11% 29.82 in 10.0 mi North 15.0 mph 23.0 mph N/A   Clear
5:53 PM 93.9 °F 32.0 °F 11% 29.83 in 10.0 mi North 11.5 mph - N/A   Clear
6:53 PM 91.9 °F 30.0 °F 11% 29.82 in 10.0 mi NNE 13.8 mph 24.2 mph N/A   Clear
7:53 PM 89.1 °F 30.0 °F 12% 29.82 in 10.0 mi North 10.4 mph - N/A   Clear
8:53 PM 81.0 °F 34.0 °F 18% 29.85 in 10.0 mi NNE 6.9 mph - N/A   Clear
9:53 PM 73.9 °F 35.1 °F 24% 29.88 in 10.0 mi ENE 4.6 mph - N/A   Clear
10:53 PM 70.0 °F 35.1 °F 28% 29.91 in 10.0 mi ENE 6.9 mph - N/A   Clear
11:53 PM 72.0 °F 36.0 °F 27% 29.92 in 10.0 mi Variable 5.8 mph - N/A   Clear